Location: Unspecified
(0.0000°N, 0.0000°E)
Time: 18:48:47
(UTC+00:00)

Envisat - Pass Details

Date: 09 December 2017
Orbit: 764 x 766 km, 98.2° (Epoch: 10 December)

Event Time Altitude Azimuth Distance (km) Brightness Sun altitude
Rises 21:03:42 0° 199° (SSW) 3,230 6.8 -43.0°
Reaches altitude 10° 21:06:47 10° 219° (SW) 2,301 6.0 -43.7°
Enters shadow 21:07:21 12° 224° (SW) 2,174 5.9 -43.8°
